View from above orbital plane
|
View from above satellite
|
Ground track
|
The orbit data is extracted from the following two-line orbital elements,
1 22287U 92094B 21065.76331312 .00000109 00000-0 11863-4 0 9998
2 22287 82.5215 252.9147 0024105 200.4981 159.5266 14.78172452498211
Epoch (UTC): | 06 March 2021 18:19:10 |
Eccentricity: | 0.0024105 |
inclination: | 82.5215° |
perigee height: | 618 km |
apogee height: | 652 km |
right ascension of ascending node: | 252.9147° |
argument of perigee: | 200.4981° |
revolutions per day: | 14.78172452 |
mean anomaly at epoch: | 159.5266° |
orbit number at epoch: | 49821 |
The dashed part of the orbit path shows where the satellite is in the earth's shadow,
|
|